Location: Barcelona
(41.3830°N, 2.1830°E)
Time: 07:55:27
(UTC+02:00)

ISS - Pass Details

Date: 13 October 2017
Orbit: 400 x 408 km, 51.6° (Epoch: 24 October)

Event Time Altitude Azimuth Distance (km) Brightness Sun altitude
Rises 20:05:08 0° 308° (NW) 2,326 0.9 -10.5°
Reaches altitude 10° 20:07:15 10° 313° (NW) 1,465 -0.3 -10.9°
Maximum altitude 20:10:29 54° 32° (NNE) 497 -3.6 -11.5°
Enters shadow 20:12:35 19° 105° (ESE) 1,028 -2.4 -11.9°
